Regional Weather Roundup
Issued by NWS Sioux Falls, SD

Home | Current Version | Previous Version | Text Only | Print | Product List | Glossary On
Versions: 1 2 3 4 5 6 7 8 9 10 11 12 13 14 15 16 17 18 19 20 21 22 23 24 25 26 27 28 29 30 31 32 33 34 35 36 37 38 39 40 41 42 43 44 45 46 47 48 49 50
000
ASUS43 KFSD 302110
RWRFSD

WEATHER ROUNDUP FOR SE SOUTH DAKOTA/SW MINNESOTA/NW IOWA
NATIONAL WEATHER SERVICE SIOUX FALLS SD
400 PM CDT SUN AUG 30 2015

NOTE: "FAIR" INDICATES FEW OR NO CLOUDS BELOW 12,000 FEET WITH NO
SIGNIFICANT WEATHER AND OR OBSTRUCTIONS TO VISIBILITY.


SDZ038>040-050-052>070-302200-
SOUTHEAST SOUTH DAKOTA

CITY           SKY/WX    TMP DP  RH WIND       PRES   REMARKS
BROOKINGS      SUNNY     77  66  69 S13G20    29.92F
CHAMBERLAIN    SUNNY     89  60  38 S12G18    29.79F
HURON          SUNNY     85  70  60 S20G25    29.80F
MADISON        FAIR      77  72  83 S14G20    29.91F
MITCHELL       SUNNY     83  70  64 S21G28    29.85F
SIOUX FALLS    CLOUDY    76  66  71 S16       29.92F
WINNER         FAIR      95  48  20 S23G36    29.80F HAZE
YANKTON        SUNNY     79  68  69 SE14      29.90F
$$

MNZ071-072-080-081-089-090-097-098-302200-
SOUTHWEST MINNESOTA

CITY           SKY/WX    TMP DP  RH WIND       PRES   REMARKS
FAIRMONT         N/A    N/A N/A N/A MISG        N/A
JACKSON        SUNNY     77  68  73 S14       29.97F
LUVERNE        SUNNY     77  64  65 S12       29.95F
MARSHALL       SUNNY     81  64  57 S14       29.91F
MONTEVIDEO     SUNNY     82  68  61 SW13G20   29.89F
PIPESTONE      SUNNY     75  64  69 S12       29.94F
REDWOOD FALLS  SUNNY     83  64  52 S12       29.90F
TRACY          SUNNY     80  68  66 S10G20    29.92F
WINDOM         SUNNY     79  63  57 S10G17    29.95F
WORTHINGTON    SUNNY     75  64  69 S12       29.96F
$$

IAZ001>003-012>014-020>022-031-032-NEZ013-014-SDZ071-302200-
NORTHWEST IOWA

CITY           SKY/WX    TMP DP  RH WIND       PRES   REMARKS
CHEROKEE       SUNNY     74  66  77 S13       29.98F
DENISON        CLOUDY    72  66  83 S9        30.00F
ESTHERVILLE    SUNNY     75  66  73 S15       29.98F
LE MARS        SUNNY     72  64  78 S14       29.97F
ORANGE CITY    SUNNY     72  64  78 S12       29.97F
SHELDON        SUNNY     75  68  78 S12       29.96F
SIOUX CITY     NOT AVBL
SPENCER        SUNNY     77  67  71 S14       29.98F
STORM LAKE     SUNNY     72  66  83 S14       30.01F
$$

ABBREVIATIONS USED IN REMARKS
   TC - TEMPERATURE IN CELSIUS
  WCI - WIND CHILL INDEX
   HX - HEAT INDEX
  VSB - VISIBILITY



USA.gov is the U.S. government's official web portal to all federal, state and local government web resources and services.